Location: Namasale
(1.5000°N, 32.6167°E)
Time: 00:06:40
(UTC+00:00)

Vanguard 3 - Pass Details

Date: 02 December 2021
Orbit: 508 x 3260 km, 33.3° (Epoch: 27 January)

Event Time Altitude Azimuth Distance (km) Brightness Sun altitude
Exits shadow 02:32:57 18° 300° (WNW) 5,531 10.7 -15.8°
Maximum altitude 02:42:40 26° 336° (NNW) 4,824 10.7 -13.6°
Drops below altitude 10° 02:55:43 10° 26° (NNE) 5,320 11.4 -10.6°
Sets 03:00:33 0° 39° (NE) 5,929 11.8 -9.4°
